SCP
0 0 0 0 0 0 0 0 0 0 0 0 0 0 0 0 0 0 0 0 0 0 0 0 0 0 0 0 0 0 0 0 0 0 0 0 0 0 0 0 0 0 0 0
0 0 0 0 0 0 0 0 0 0 0 0 0 0 0 0 0 0 0 0 0 0 0 0 0 0 0 0 0 0 0 0 0 0 0 0 0 0 0 0 0 0 0 0
0 0 0 0 0 0 0 0 0 0 0 0 0 0 0 0 0 0 0 0 0 0 0 0 0 0 0 0 0 0 0 0 0 0 0 0 0 0 0 0 0 0 0 0
0 0 0 0 0 0 0 0 0 0 0 0 0 0 0 0 0 0 0 0 0 0 0 0 0 0 0 0 0 0 0 0 0 0 0 0 0 0 0 0 0 0 0 0
0 0 0 0 0 0 0 0 0 0 0 0 0 0 0 0 0 0 0 0 0 0 0 0 0 0 0 0 0 0 0 0 0 0 0 0 0 0 0 0 0 0 0 0
0 0 0 0 0 0 0 0 0 0 0 0 0 0 0 0 0 0 0 0 0 0 0 0 0 0 0 0 0 0 0 0 0 0 0 0 0 0 0 0 0 0 0 0
0 0 0 0 0 0 0 0 0 0 0 0 0 0 0 0 0 0 0 0 0 0 0 0 0 0 0 0 0 0 0 0 0 0 0 0 0 0 0 0 0 0 0 0
0 0 0 0 0 0 0 0 0 0 0 0 0 0 0 0 0 0 0 0 0 0 0 0 0 0 0 0 0 0 0 0 0 0 0 0 0 0 0 0 0 0 0 0
0 0 0 0 0 0 0 0 0 0 0 0 0 0 0 0 0 0 0 0 0 0 0 0 0 0 0 0 0 0 0 0 0 0 0 0 0 0 0 0 0 0 0 0
0 0 0 0 0 0 0 0 0 0 0 0 0 0 0 0 0 0 0 0 0 0 0 0 0 0 0 0 0 0 0 0 0 0 0 0 0 0 0 0 0 0 0 0
0 0 0 0 0 0 0 0 0 0 0 0 0 0 0 0 0 0 0 0 0 0 0 0 0 0 0 0 0 0 0 0 0 0 0 0 0 0 0 0 0 0 0 0
0 0 0 0 0 0 0 0 0 0 0 0 0 0 0 0 0 0 0 0 0 0 0 0 0 0 0 0 0 0 0 0 0 0 0 0 0 0 0 0 0 0 0 0
0 0 0 0 0 0 0 0 0 0 0 0 0 0 0 0 0 0 0 0 0 0 0 0 0 0 0 0 0 0 0 0 0 0 0 0 0 0 0 0 0 0 0 0
0 0 0 0 0 0 0 0 0 0 0 0 0 0 0 0 0 0 0 0 0 0 0 0 0 0 0 0 0 0 0 0 0 0 0 0 0 0 0 0 0 0 0 0
0 0 0 0 0 0 0 0 0 0 0 0 0 0 0 0 0 0 0 0 0 0 0 0 0 0 0 0 0 0 0 0 0 0 0 0 0 0 0 0 0 0 0 0
0 0 0 0 0 0 0 0 0 0 0 0 0 0 0 0 0 0 0 0 0 0 0 0 0 0 0 0 0 0 0 0 0 0 0 0 0 0 0 0 0 0 0 0
0 0 0 0 0 0 0 0 0 0 0 0 0 0 0 0 0 0 0 0 0 0 0 0 0 0 0 0 0 0 0 0 0 0 0 0 0 0 0 0 0 0 0 0
0 0 0 0 0 0 0 0 0 0 0 0 0 0 0 0 0 0 0 0 0 0 0 0 0 0 0 0 0 0 0 0 0 0 0 0 0 0 0 0 0 0 0 0
0 0 0 0 0 0 0 0 0 0 0 0 0 0 0 0 0 0 0 0 0 0 0 0 0 0 0 0 0 0 0 0 0 0 0 0 0 0 0 0 0 0 0 0
0 0 0 0 0 0 0 0 0 0 0 0 0 0 0 0 0 0 0 0 0 0 0 0 0 0 0 0 0 0 0 0 0 0 0 0 0 0 0 0 0 0 0 0
0 0 0 0 0 0 0 0 -0 -0 0 0 0 0 0 0 0 0 0 0 0 0 0 0 0 0 0 0 0 0 0 0 0 0 0 0 0 0 0 0 0 0 0 0
0 0 0 0 0 0 0 0 -0 -0 -0 0 0 0 0 0 0 0 0 0 0 0 0 0 0 0 0 0 0 0 0 0 0 0 0 0 0 0 0 0 0 0 0 0
0 0 0 0 0 0 0 0 0 0 0 0 0 0 0 0 0 0 0 0 0 0 0 0 0 0 0 0 0 0 0 0 0 0 0 0 0 0 0 0 0 0 0 0
0 0 0 0 0 0 0 0 0 0 0 0 0 0 0 0 0 -0 0 0 0 0 0 0 0 0 0 0 0 0 0 0 0 0 0 0 0 0 0 0 0 0 0 0
0 0 0 0 0 0 0 0 0 0 0 0 0 0 0 0 0 -0 0 0 0 0 0 0 0 0 0 0 0 0 0 0 0 0 0 0 0 0 0 0 0 0 0 0
0 0 0 0 0 0 0 0 0 0 0 0 0 0 0 0 0 0 0 0 0 0 0 0 0 0 0 0 0 0 0 0 0 0 0 0 0 0 0 0 0 0 0 0
0 0 0 0 0 0 0 0 0 0 0 0 0 0 0 0 0 0 0 0 0 0 0 0 0 0 0 0 0 0 0 0 0 0 0 0 0 0 0 0 0 0 0 0
Wind_Speed
6 6 5 6 6 6 7 7 6 5 5 5 2 1 0 1 1 1 0 0 0 0 0 0 1 1 1 1 1 0 1 0 0 0 0 1 1 1 1 1 1 2 2 1
5 5 4 6 8 8 9 8 9 8 9 5 2 1 1 1 1 1 1 1 1 1 1 0 0 1 1 1 1 1 1 0 1 1 1 1 0 1 1 1 1 1 1 1
3 1 2 7 8 9 7 7 7 10 9 2 2 2 2 2 2 2 2 2 2 1 1 1 0 1 1 1 1 1 1 1 1 1 1 1 1 1 1 1 1 1 1 1
2 2 6 6 1 5 7 7 7 6 4 2 3 3 2 1 2 2 2 2 2 1 1 0 0 1 1 1 1 1 1 1 1 1 1 1 1 1 1 1 1 1 1 1
2 3 7 3 1 1 4 5 5 6 5 3 2 2 2 2 1 1 1 2 2 1 1 0 0 0 0 1 1 1 1 0 1 1 1 0 1 1 1 1 1 1 1 1
3 4 6 3 1 1 1 4 3 2 3 1 1 1 3 2 2 2 1 1 1 1 1 0 0 1 1 1 1 0 1 0 0 1 0 0 1 1 1 1 1 1 1 1
5 5 7 2 1 2 3 5 1 0 1 1 2 3 3 2 2 2 2 2 1 0 1 1 1 1 1 1 1 1 0 1 1 1 1 1 1 1 1 1 1 1 1 1
4 5 8 2 4 4 4 1 1 1 1 2 2 2 2 2 2 2 2 2 1 0 0 0 1 1 1 1 1 0 1 1 1 1 1 1 2 1 1 1 1 1 1 1
7 7 2 4 4 3 1 1 2 2 2 2 2 2 2 2 2 2 2 2 1 0 0 0 0 1 2 1 1 1 1 0 0 1 1 1 1 1 1 1 1 1 1 1
4 6 4 3 3 2 2 2 3 2 2 2 3 3 3 2 2 2 2 1 1 1 1 1 1 1 1 1 1 1 1 0 0 1 1 1 0 0 0 1 1 0 1 1
6 6 4 4 4 4 3 3 3 3 2 3 2 3 3 3 2 2 2 1 1 1 1 2 1 1 1 1 1 1 1 0 0 0 0 0 0 0 0 0 1 1 1 1
7 4 4 4 2 3 3 3 3 3 3 2 3 3 3 2 2 2 2 1 1 1 1 1 1 1 0 1 1 1 1 1 0 0 1 0 0 1 1 0 1 2 1 1
6 3 3 4 2 1 2 3 3 3 3 3 3 3 2 2 2 1 1 1 2 2 2 1 1 1 0 1 1 1 1 1 1 1 1 1 1 1 0 1 1 1 1 1
4 3 4 4 3 3 3 2 2 2 2 2 2 2 2 2 1 1 2 2 2 1 1 1 1 1 1 1 1 1 1 1 1 1 1 1 1 1 1 1 1 1 2 2
3 3 4 3 2 2 2 2 2 2 2 2 1 1 2 2 2 2 2 1 1 1 1 1 1 2 1 1 1 1 1 1 1 1 1 1 1 1 1 1 1 1 1 1
3 3 3 2 3 3 2 2 3 3 3 2 2 2 2 2 2 1 1 1 1 2 2 2 2 2 1 1 1 1 1 2 1 1 1 1 1 1 1 1 1 1 1 1
3 4 4 4 4 4 3 3 3 3 2 2 2 2 1 1 1 2 2 2 2 2 2 2 3 2 1 1 1 1 1 1 2 1 1 1 1 1 1 1 1 2 2 2
4 4 3 3 3 3 3 3 2 2 2 2 1 1 1 2 3 3 2 2 1 2 2 2 2 1 1 1 2 1 1 1 1 1 1 1 1 1 1 1 2 2 1 2
3 3 3 2 3 3 3 3 2 2 2 1 1 2 2 3 3 2 2 2 2 3 3 2 3 2 2 2 2 1 1 1 2 1 2 2 2 1 1 2 2 2 2 1
2 2 2 2 2 2 3 2 2 2 2 2 2 2 2 3 2 2 2 3 3 3 2 2 2 2 2 3 3 2 2 2 2 2 2 2 2 2 2 2 2 2 2 2
3 3 3 3 3 2 2 2 2 3 2 2 3 3 3 3 2 2 2 3 3 2 2 3 2 2 2 2 3 2 2 2 2 2 2 2 2 2 2 2 2 2 2 2
3 3 3 3 3 3 3 2 3 3 3 2 3 3 3 3 3 3 4 4 3 3 2 2 2 3 3 3 2 2 2 2 2 2 2 2 2 2 2 2 2 2 2 2
3 3 3 3 3 3 3 2 3 3 3 4 4 4 4 4 3 3 4 3 2 3 2 2 3 4 4 2 2 2 2 2 2 2 2 2 2 2 2 2 2 2 2 2
3 3 3 2 2 2 3 4 3 3 4 4 4 4 4 3 3 3 3 3 4 4 2 3 5 5 4 1 2 2 2 2 2 2 2 2 2 2 2 2 2 2 2 3
3 3 3 3 3 4 4 3 3 3 3 3 4 4 4 3 4 3 2 3 4 4 2 4 5 4 2 1 2 2 2 2 2 2 2 2 2 2 2 2 2 2 2 3
3 3 4 4 4 3 3 3 3 3 3 3 3 3 2 2 3 3 2 3 4 4 3 2 2 3 2 2 2 2 2 2 2 2 2 2 2 2 2 2 3 3 2 3
3 3 3 3 3 3 3 3 3 4 3 3 3 3 3 3 2 2 3 2 2 2 2 2 2 2 2 2 2 2 2 2 2 2 2 2 2 2 2 3 2 2 2 3
Wind_Direction
259 268 268 248 237 223 221 228 235 255 259 265 272 248 295 17 13 59 39 20 77 180 232 356 354 356 359 11 28 59 114 100 307 336 3 200 200 188 190 201 199 191 204 216
267 240 241 259 247 234 235 239 248 263 270 268 294 356 327 312 274 265 267 275 264 235 221 242 322 334 343 351 4 46 70 40 26 35 53 45 139 133 142 189 192 167 191 169
265 259 303 264 235 217 221 226 227 238 249 281 309 291 272 274 276 257 244 259 267 256 236 235 248 323 334 314 9 56 57 49 48 49 57 46 47 84 110 129 143 133 143 117
272 297 243 244 189 198 218 239 236 251 276 276 263 268 269 283 277 279 276 273 268 270 274 269 16 25 18 18 50 56 44 33 40 51 48 38 82 96 84 103 124 125 111 118
241 257 268 264 249 198 215 260 243 245 260 286 328 326 307 340 323 276 275 283 275 249 242 156 122 122 114 63 59 54 29 357 18 57 42 58 92 87 76 78 72 87 99 99
229 244 247 256 293 340 78 274 279 238 250 273 24 272 273 319 325 318 311 299 285 219 144 137 221 149 146 131 88 357 308 314 25 69 82 118 101 86 70 79 80 70 75 98
227 244 262 258 200 129 183 255 316 179 267 223 213 233 291 344 350 348 346 327 320 205 162 191 197 155 164 151 209 271 325 30 29 53 69 94 79 73 83 84 83 77 72 56
201 227 252 163 138 185 226 311 7 331 271 256 268 295 318 338 338 336 332 326 328 309 217 187 160 161 180 219 241 32 79 71 36 44 45 75 94 83 87 103 98 92 84 56
204 219 236 166 194 220 313 302 298 290 292 262 268 282 302 312 311 306 300 301 316 297 263 229 183 175 198 242 180 117 88 71 46 51 49 63 107 117 112 105 114 123 122 108
259 259 253 230 243 269 273 267 282 285 276 265 258 271 282 286 286 287 288 285 303 302 276 281 252 212 206 200 142 130 138 164 125 100 79 62 74 105 136 168 158 160 164 168
256 275 288 251 238 251 263 273 283 280 260 248 249 260 255 266 266 266 270 264 239 235 247 264 258 236 205 153 137 140 153 156 131 144 151 78 57 88 164 242 198 196 198 186
238 237 229 257 250 248 251 264 268 266 271 261 242 249 250 250 249 254 251 244 237 241 251 266 252 254 251 144 152 161 176 197 196 173 168 168 138 36 34 352 326 311 263 223
246 267 263 270 275 270 266 262 259 254 249 257 257 245 243 246 245 245 246 238 233 240 248 254 249 270 290 172 162 181 197 204 214 196 177 184 184 181 309 358 344 325 318 297
253 264 269 262 260 269 268 274 279 277 266 252 253 247 229 232 240 246 250 241 233 226 231 229 224 250 265 189 171 191 198 206 219 216 200 200 199 203 206 211 288 310 304 297
257 249 251 268 266 262 255 248 258 266 267 270 252 228 220 224 233 246 256 246 216 208 224 223 233 261 266 173 176 200 208 221 217 206 197 203 195 196 209 224 240 270 310 300
260 258 252 255 262 267 260 247 245 256 254 250 248 240 225 220 232 245 246 218 206 232 239 223 241 262 251 167 189 214 223 228 224 193 175 198 200 206 225 231 237 243 256 274
222 239 238 247 253 259 261 259 253 254 248 243 246 244 228 219 232 247 251 239 225 237 233 221 243 257 211 178 195 219 216 220 218 211 201 203 206 220 232 233 241 249 252 258
227 235 232 232 242 256 265 268 262 253 241 237 236 233 226 224 236 249 253 248 243 249 250 236 236 237 216 197 198 211 209 209 201 203 210 213 218 221 228 232 241 247 262 263
235 241 244 246 248 247 254 260 258 254 251 228 221 237 241 241 243 248 246 237 237 252 263 244 242 227 221 217 202 201 204 208 208 208 211 229 240 236 231 236 249 247 245 247
229 237 237 244 246 237 247 258 258 252 242 217 223 236 241 242 238 238 234 239 242 239 240 236 230 222 221 219 210 200 203 210 210 211 216 220 226 230 233 238 244 249 249 248
234 234 234 236 247 247 237 238 238 245 242 212 215 229 239 246 239 231 234 253 254 234 238 241 224 223 221 217 212 203 202 208 211 215 219 222 224 228 231 236 244 250 253 256
236 233 235 233 235 252 250 237 233 236 238 232 227 226 232 245 244 243 239 238 245 248 253 237 221 227 231 225 210 202 204 209 213 216 220 218 217 224 230 229 235 249 251 249
245 245 245 239 236 245 256 248 238 230 231 233 230 227 230 236 231 233 255 241 229 248 249 234 235 237 238 217 198 202 207 207 209 212 217 218 217 216 220 227 233 239 242 245
241 243 247 251 241 240 251 255 248 242 239 239 234 226 223 233 244 235 237 247 246 250 242 238 242 240 229 199 188 195 204 209 209 207 213 219 219 218 219 222 229 236 239 243
236 239 238 231 232 238 243 246 244 243 242 242 238 230 223 218 225 237 233 233 240 248 246 242 245 242 218 189 193 201 207 217 214 204 205 211 218 223 225 223 227 234 239 243
234 233 233 231 232 234 230 226 234 236 232 241 244 232 227 222 219 224 226 229 232 241 243 239 235 225 203 196 202 207 208 222 238 230 216 216 220 224 228 230 233 235 239 243
239 238 240 246 244 231 227 227 232 237 232 231 243 235 223 223 220 222 228 231 232 233 233 229 220 210 199 197 203 206 208 213 216 217 218 222 226 229 231 230 233 235 238 241